sat.trackr.live / text

‹ back to catalog

STARLINK-36626

NORAD 67603 · 2026-018Q

PAYLOAD ACTIVE UNKNOWN

§ Identity

Operator
Country
US
Launch date
2026-01-29
Launch site
AFWTR
Launch vehicle
Mass (kg)
RCS (m²)

Purposes: comms

External: N2YO · Heavens-Above · Gunter

§ Orbital elements

Epoch: 2026-09-19T08:08:34.717344Z

Period
93.91 min
Inclination
97.2851°
Eccentricity
0.0000392
Mean motion
15.33454240 rev/d
Perigee alt
465.2 km
Apogee alt
465.8 km
Semi-major
6,843.7 km
B*
5.0601e-4
RAAN
325.8332°
Arg perigee
79.1971°
Mean anomaly
280.9315°
Rev number
3,701

§ Raw data

STARLINK-366261 67603U 26018Q   26262.33929071  .00016301  00000+0  50601-3 0  99962 67603  97.2851 325.8332 0000392  79.1971 280.9315 15.33454240 37010

JSON: /api/v1/satellites/67603 · /tle

For live sub-satellite position, see the globe view (requires WebGL).

§ Visibility from observer

Set your observer location to see the next 7 days of passes ≥ 10°. The values pass through the URL so the page stays shareable.

No JS? Fill the form by hand. The geolocation button needs JavaScript.